Location: Unspecified
(34.1750°S, 150.8048°E)
Time: 17:40:40
(UTC+11:00)

BlueWalker 3 - Pass Details

Date: 27 September 2023
Orbit: 489 x 504 km, 53.2° (Epoch: 28 November)

Event Time Altitude Azimuth Distance (km) Brightness Sun altitude
Rises 18:34:04 0° 219° (SW) 2,612 6.4 -8.6°
Reaches altitude 10° 18:36:22 10° 211° (SSW) 1,719 5.2 -9.1°
Maximum altitude 18:40:03 41° 139° (SE) 736 2.5 -9.8°
Enters shadow 18:42:58 15° 72° (ENE) 1,426 3.6 -10.4°
